Terminal Aerodrome Forecast
Issued by NWS Portland, OR

Home | Current Version | Previous Version | Text Only | Print | Product List | Glossary On
Versions: 1 2 3 4 5 6 7 8 9 10 11 12 13 14 15 16 17 18 19 20 21 22 23 24 25 26 27 28 29 30 31 32 33 34 35 36 37 38 39 40 41 42 43 44 45 46 47 48 49 50
000
FTUS46 KPQR 210849 AAA
TAFPDX
TAF AMD
KPDX 210849Z 2109/2206 12006KT P6SM VCSH FEW030 BKN060
     FM211200 11006KT P6SM FEW020 BKN060
     FM211900 12006KT P6SM BKN050 BKN100
     FM220300 15010KT P6SM -RA OVC060=

USA.gov is the U.S. government's official web portal to all federal, state and local government web resources and services.